Warning: fopen(/var/www/metroair/shared/private/wxdata/metar/AVWX/metar_BGSF): failed to open stream: Permission denied in /var/www/metroair/shared/private/library/orig_library/lib_airport.php on line 346

Warning: fwrite() expects parameter 1 to be resource, boolean given in /var/www/metroair/shared/private/library/orig_library/lib_airport.php on line 347

Warning: fclose() expects parameter 1 to be resource, boolean given in /var/www/metroair/shared/private/library/orig_library/lib_airport.php on line 348

MET7782 - Kangerlussuaq to Kansas City

Airbus A321-232
665MT - Sharklet Equipped
5 hrs 15 mins
2214 nm
Ferry - M

Departure

Departing from
Kangerlussuaq (SFJ)
Departure gate
Ramp
Scheduled Departure
GMT 1345
Local 1045
METAR BGSF 260450Z AUTO 06006KT 9999NDV NCD M39/M43 Q1015
TAF
  • No charts available

Arrival

Arriving at
Kansas City (MCI)
Arrival gate
Scheduled Arrival
GMT 1900
Local 1300
METAR KMCI 260453Z 18009KT 10SM CLR M02/M11 A3000 RMK AO2 SLP169 T10221106
TAF KMCI 252320Z 2600/2624 20009KT P6SM SCT200 FM261500 22010KT P6SM OVC070

Route Map

Planning Resources

GPS DIRECT TO KMCI
+SF 6655N 6360N RODBO N484C SEMTO N496C SSM J101 BAE J105 BDF J26 IRK.BSQ4
6655N6560N FEDDY GW PELEE YXZ SAW DLL DBQ IOW IRK.BQS4
BGSF DIRECT FEDDY N518C YQT J533 DLH J21 GEP J25 KMCI
BGSF TO KMCI DIRECT
Route:
OFP Layout:
Units:
Detailed Navlog:
ETOPS Planning:
Plan Stepclimbs:
Runway Analysis:
Include NOTAMS:
FIR NOTAMS:
Flight Maps:

Popularity

Hub Current Bids PiReps this month Total PiReps
KMCI 0 0 1
KLAX 0 0 0
KBOS 0 0 0